[[{"header":{"parameterUnit":"m.s-1","parameterCategory":1,"la1":30.2991,"la2":30.254,"lo1":-89.0895,"lo2":-89.0444,"dy":0.0017,"dx":0.0017,"nx":28,"ny":28,"refTime":"2024-09-01T03:00:00:Z","depth":0,"parameterNumber":2,"parameterNumberName":"U-component_of_WINDS"},"data":[0,0,0,0,0,0,0,0,0,0,0,0,0,0,0,0,0,0,0,0,0,0,0,0,0,0,0,0,0,0,0,0,0,0,0,0,0,0,0,0,0,0,0,0,0,0,0,0,0,0,0,0,0,0,0,0,0,0,-4.8107,-4.8108,0,-4.8129,-4.8129,-4.8129,-4.8023,-4.802,-4.8017,-4.8014,-4.8038,-4.8042,-4.8045,0,0,0,0,0,0,0,0,0,0,0,0,0,-4.7978,-4.7981,-4.8107,-4.8108,-4.8108,-4.8129,-4.8129,-4.8129,-4.8024,-4.802,-4.8017,-4.8013,-4.8037,-4.8041,-4.8045,0,0,0,0,0,0,0,0,0,0,0,0,0,-4.8021,-4.7982,-4.8107,-4.8058,-4.8053,-4.8129,-4.8129,-4.8129,-4.8025,-4.802,-4.8016,-4.8011,-4.8036,-4.8041,-4.8046,-4.8171,0,0,-4.8062,-4.8064,0,0,0,0,0,0,0,0,-4.8018,-4.8025,-4.8065,-4.8061,-4.8057,-4.8069,-4.8092,-4.8143,-4.8026,-4.8036,-4.8014,-4.8009,-4.8052,-4.8056,-4.807,-4.8172,-4.8173,-4.8063,-4.8066,-4.8068,-4.8069,0,0,0,0,0,0,0,-4.8016,-4.8024,-4.8116,-4.8065,-4.8061,-4.8036,-4.8036,-4.8101,-4.807,-4.8035,-4.8027,-4.8031,-4.8049,-4.8065,-4.807,-4.8173,-4.8062,-4.8067,-4.807,-4.8072,-4.838,-4.8385,0,0,0,0,0,0,-4.8019,-4.8022,-4.8115,-4.8116,-4.8026,-4.8042,-4.8043,-4.807,-4.8069,-4.8064,-4.8035,-4.8026,-4.8059,-4.8064,-4.807,-4.8217,-4.8068,-4.8073,-4.8076,-4.8375,-4.8381,-4.8386,0,0,0,0,0,0,-4.8016,-4.8028,-4.8114,-4.8067,-4.8076,-4.8049,-4.808,-4.8072,-4.8088,-4.8069,-4.8063,-4.8057,-4.8055,-4.8063,-4.8147,-4.8216,-4.8075,-4.808,-4.8369,-4.8377,-4.8384,-4.851,0,0,0,0,0,0,-4.8013,-4.8028,-4.8074,-4.8069,-4.8079,-4.819,-4.8084,-4.8076,-4.8097,-4.8086,-4.8088,-4.8084,-4.8052,-4.8139,-4.8152,-4.8221,-4.8084,-4.8363,-4.8372,-4.8381,-4.85,-4.8521,-4.8539,0,0,0,0,0,-4.8009,-4.8109,-4.8077,-4.8088,-4.8136,-4.8194,-4.82,-4.8161,-4.8103,-4.815,-4.8138,-4.8084,-4.8207,-4.8149,-4.8162,-4.8233,-4.8358,-4.837,-4.8381,-4.8491,-4.8517,-4.8539,0,0,0,0,0,0,-4.8122,-4.8107,-4.8071,-4.8172,-4.8185,-4.8176,-4.8233,-4.8189,-4.8219,-4.8207,-4.8158,-4.816,-4.8252,-4.8251,-4.8187,-4.8355,-4.8273,-4.8287,-4.8352,-4.8376,-4.8396,-4.8394,-4.8088,0,0,0,0,0,-4.8159,-4.8206,-4.8191,-4.8281,-4.829,-4.8261,-4.8284,-4.8254,-4.8265,-4.827,-4.8264,-4.8278,-4.832,-4.8348,-4.8385,-4.85,-4.8499,-4.8555,-4.8575,-4.8592,-4.8605,-4.8666,-4.8691,-4.8423,-4.8423,-4.8423,0,0,-4.8235,-4.8233,-4.8265,-4.8304,-4.831,-4.8362,-4.8266,-4.8324,-4.8361,-4.8279,-4.8357,-4.8354,-4.8367,-4.8467,-4.851,-4.8468,-4.8679,-4.8606,-4.8619,-4.8623,-4.8681,-4.8706,-4.8729,-4.8431,-4.843,-4.8429,0,0,-4.84,-4.8403,-4.8479,-4.8488,-4.8499,-4.8479,-4.8498,-4.8496,-4.849,-4.8569,-4.8508,-4.8553,-4.8626,-4.8638,-4.8653,-4.8826,-4.8778,-4.884,-4.8944,-4.9004,-4.9025,-4.9044,-4.9106,-4.9129,-4.8853,-4.8854,-4.8854,0,-4.8493,-4.8567,-4.8524,-4.8586,-4.8606,-4.8534,-4.8612,-4.8622,-4.8646,-4.8661,-4.8614,-4.8705,-4.8709,-4.8811,-4.8854,-4.8869,-4.8889,-4.8839,-4.9026,-4.9044,-4.9061,-4.9119,-4.9143,-4.8861,-4.886,-4.8859,-4.8859,0,-4.8682,-4.8734,-4.8795,-4.8819,-4.8845,-4.8915,-4.8884,-4.8916,-4.8884,-4.887,-4.8952,-4.8954,-4.8991,-4.9014,-4.8983,-4.9113,-4.9087,-4.9034,-4.895,-4.9094,-4.9149,-4.9171,-4.8872,-4.8869,-4.8867,-4.8865,0,0,-4.8916,-4.8917,-4.894,-4.8951,-4.8959,-4.8999,-4.9067,-4.9103,-4.9132,-4.9152,-4.9208,-4.9273,-4.9224,-4.9242,-4.9212,-4.9266,-4.9404,-4.9207,-4.9206,-4.9243,-4.9548,-4.9588,-4.9614,-4.9373,-4.9377,-4.938,-4.9547,0,-4.9077,-4.9191,-4.9156,-4.9272,-4.9321,-4.9255,-4.9314,-4.9327,-4.9317,-4.9357,-4.9346,-4.9393,-4.9326,-4.9336,-4.9386,-4.9377,-4.9465,-4.9364,-4.9425,-4.9428,-4.9423,-4.9642,-4.9683,-4.9841,-4.9568,-4.9572,-4.9574,0,-4.928,-4.9308,-4.9428,-4.943,-4.9449,-4.9503,-4.9534,-4.9574,-4.9588,-4.9577,-4.9598,-4.9558,-4.9626,-4.9544,-4.9638,-4.957,-4.9594,-4.9593,-4.9598,-4.9601,-4.9509,-4.9652,-4.989,-4.9914,-4.9607,-4.9605,-4.9602,0,-4.9439,-4.9507,-4.9588,-4.9599,-4.9603,-4.9643,-4.9646,-4.9655,-4.968,-4.9708,-4.9724,-4.9761,-4.978,-4.981,-4.9781,-4.9724,-4.988,-4.9795,-4.9874,-4.9875,-4.9908,-4.9906,-5.0154,-4.9925,-4.9925,-4.9924,-4.9924,0,-4.9622,-4.9699,-4.9659,-4.9709,-4.9794,-4.9754,-4.9839,-4.9835,-4.9845,-4.9894,-4.984,-4.9888,-4.9847,-4.9892,-4.9871,-4.9952,-4.9962,-4.9955,-4.9948,-4.996,-4.9961,-4.9973,-4.9961,-4.9931,-4.9929,-4.9928,-4.9927,0,-4.9813,-4.979,-4.9874,-4.9872,-4.9873,-4.9936,-4.9934,-4.9981,-4.9968,-5.0031,-5.0044,-5.0024,-5.0073,-5.0048,-5.01,-5.0086,-5.0191,-5.017,-5.0187,-5.0181,-5.0261,-5.0254,-5.0525,-5.0558,-5.0309,-5.0311,-5.0313,0,-4.9931,-4.9989,-4.9993,-5.0022,-5.0029,-5.0077,-5.0102,-5.0066,-5.0095,-5.0116,-5.0161,-5.0206,-5.024,-5.0324,-5.0314,-5.0354,-5.0333,-5.0426,-5.0339,-5.0349,-5.0335,-5.0331,-5.0337,-5.0443,-5.0446,-5.0448,-5.045,0,-5.0143,-5.013,-5.0167,-5.0203,-5.0234,-5.026,-5.0282,-5.0309,-5.0274,-5.0309,-5.036,-5.0386,-5.044,-5.0486,-5.0522,-5.0526,-5.0483,-5.0478,-5.0498,-5.0509,-5.0516,-5.0514,-5.0234,-5.0471,-5.0469,-5.0467,-5.0466,-5.0465,-5.0301,-5.035,-5.0361,-5.0405,-5.0418,-5.044,-5.0484,-5.0478,-5.0519,-5.0559,-5.0536,-5.0595,-5.061,-5.0653,-5.0664,-5.0711,-5.0674,-5.0704,-5.0711,-5.0719,-5.073,-5.051,-5.0717,-5.0717,-5.0716,-5.0716,-5.0715,0,-5.051,-5.0515,-5.0556,-5.0588,-5.0625,-5.0581,-5.0603,-5.0636,-5.0689,-5.0706,-5.0741,-5.08,-5.0846,-5.0841,-5.0883,-5.0921,-5.0903,-5.0934,-5.093,-5.0932,-5.076,-5.0738,-5.0948,-5.0948,-5.0948,-5.0948,-5.0948,-5.0948,-5.0623,-5.0703,-5.0691,-5.0778,-5.0782,-5.0839,-5.0856,-5.0877,-5.089,-5.0958,-5.0995,-5.0992,-5.1001,-5.1044,-5.1084,-5.1081,-5.1099,-5.1138,-5.1128,-5.0967,-5.0944,-5.0922,-5.0901,-5.1142,-5.1142,-5.1296,-5.1297,-5.1298]},{"header":{"parameterUnit":"m.s-1","parameterCategory":1,"la1":30.2991,"la2":30.254,"lo1":-89.0895,"lo2":-89.0444,"dy":0.0017,"dx":0.0017,"nx":28,"ny":28,"refTime":"2024-09-01T03:00:00:Z","depth":0,"parameterNumber":3,"parameterNumberName":"V-component_of_WINDS"},"data":[0,0,0,0,0,0,0,0,0,0,0,0,0,0,0,0,0,0,0,0,0,0,0,0,0,0,0,0,0,0,0,0,0,0,0,0,0,0,0,0,0,0,0,0,0,0,0,0,0,0,0,0,0,0,0,0,0,0,0.0194,0.0194,0,0.019,0.019,0.019,0.0234,0.0236,0.0237,0.0238,0.0235,0.0234,0.0232,0,0,0,0,0,0,0,0,0,0,0,0,0,0.0245,0.0243,0.0194,0.0194,0.0194,0.019,0.019,0.019,0.0234,0.0236,0.0237,0.0238,0.0235,0.0234,0.0232,0,0,0,0,0,0,0,0,0,0,0,0,0,0.023,0.0243,0.0194,0.0216,0.0217,0.019,0.019,0.019,0.0234,0.0236,0.0237,0.0239,0.0236,0.0234,0.0232,0.0184,0,0,0.0226,0.0226,0,0,0,0,0,0,0,0,0.0231,0.0228,0.0212,0.0214,0.0216,0.0215,0.0207,0.0188,0.0233,0.0228,0.0238,0.024,0.0227,0.0226,0.0221,0.0184,0.0184,0.0226,0.0225,0.0224,0.0224,0,0,0,0,0,0,0,0.0232,0.0228,0.0193,0.0212,0.0214,0.0227,0.0227,0.0203,0.0217,0.0228,0.0231,0.023,0.0228,0.0223,0.0221,0.0184,0.0226,0.0225,0.0224,0.0223,0.0113,0.0112,0,0,0,0,0,0,0.0229,0.0229,0.0193,0.0192,0.0228,0.0225,0.0224,0.0213,0.0217,0.022,0.0229,0.0232,0.0225,0.0223,0.0221,0.0168,0.0224,0.0223,0.0222,0.0115,0.0113,0.0111,0,0,0,0,0,0,0.023,0.0226,0.0193,0.0212,0.0208,0.0222,0.0209,0.0212,0.0207,0.0218,0.0221,0.022,0.0226,0.0224,0.0194,0.0169,0.0222,0.022,0.0117,0.0114,0.0112,0.006,0,0,0,0,0,0,0.0231,0.0226,0.0206,0.0211,0.0207,0.0164,0.0207,0.0211,0.0203,0.0208,0.0211,0.0213,0.0227,0.0197,0.0192,0.0167,0.0219,0.012,0.0116,0.0113,0.0064,0.0056,0.0049,0,0,0,0,0,0.0233,0.019,0.0205,0.02,0.0183,0.0162,0.016,0.0177,0.0201,0.0182,0.0191,0.0213,0.0173,0.0193,0.0189,0.0162,0.0121,0.0117,0.0113,0.0067,0.0057,0.0049,0,0,0,0,0,0,0.0181,0.0191,0.0207,0.0164,0.0162,0.017,0.0146,0.0166,0.0157,0.0161,0.0184,0.0185,0.0152,0.0155,0.0177,0.0119,0.0151,0.0146,0.0118,0.0109,0.0101,0.0101,0.0217,0,0,0,0,0,0.0165,0.0146,0.0157,0.0118,0.0117,0.0132,0.0123,0.0138,0.0136,0.0135,0.0141,0.014,0.0128,0.0118,0.0107,0.0066,0.0069,0.0046,0.0038,0.0032,0.0027,0.0009,-0.0,0.0098,0.0098,0.0098,0,0,0.013,0.0134,0.012,0.0108,0.0108,0.009,0.013,0.0109,0.0096,0.0132,0.0105,0.011,0.011,0.0075,0.006,0.0076,0.0001,0.0027,0.0022,0.002,0.0004,-0.0005,-0.0014,0.0095,0.0095,0.0096,0,0,0.0058,0.0058,0.0028,0.0028,0.0029,0.004,0.0033,0.0039,0.0044,0.0017,0.0045,0.0032,0.0009,0.0009,0.0006,-0.0058,-0.0037,-0.0062,-0.0102,-0.012,-0.0128,-0.0134,-0.0156,-0.0164,-0.0067,-0.0067,-0.0067,0,0.0015,-0.0012,0.001,-0.0012,-0.0017,0.0017,-0.0012,-0.0013,-0.0016,-0.0019,-0.0,-0.0025,-0.0023,-0.0055,-0.007,-0.0074,-0.0079,-0.0064,-0.0128,-0.0135,-0.0141,-0.0161,-0.0169,-0.007,-0.0069,-0.0069,-0.0069,0,-0.0063,-0.0082,-0.0106,-0.0109,-0.0116,-0.0141,-0.0121,-0.013,-0.0114,-0.0103,-0.0128,-0.0123,-0.0131,-0.0137,-0.0122,-0.0166,-0.0155,-0.0133,-0.01,-0.0154,-0.0172,-0.0179,-0.0074,-0.0073,-0.0072,-0.0071,0,0,-0.0174,-0.0159,-0.0169,-0.0168,-0.0162,-0.0175,-0.0196,-0.0203,-0.021,-0.0212,-0.0228,-0.0245,-0.0222,-0.0226,-0.0209,-0.0225,-0.0272,-0.0199,-0.0199,-0.0212,-0.0317,-0.0334,-0.0344,-0.0257,-0.0258,-0.026,-0.0317,0,-0.0243,-0.0281,-0.0259,-0.0299,-0.0313,-0.0278,-0.0296,-0.0293,-0.0283,-0.0292,-0.0279,-0.0291,-0.0262,-0.0263,-0.0276,-0.0264,-0.0293,-0.0259,-0.0271,-0.0271,-0.0273,-0.0354,-0.0373,-0.0428,-0.0324,-0.0325,-0.0326,0,-0.033,-0.0333,-0.0375,-0.0361,-0.0367,-0.0384,-0.0385,-0.0395,-0.0389,-0.038,-0.038,-0.0358,-0.0375,-0.0341,-0.0363,-0.034,-0.0343,-0.0336,-0.0338,-0.0339,-0.0303,-0.0357,-0.0445,-0.0453,-0.0337,-0.0336,-0.0335,0,-0.0404,-0.0419,-0.0445,-0.0445,-0.043,-0.0443,-0.0437,-0.0429,-0.0432,-0.0433,-0.0434,-0.0437,-0.0438,-0.0439,-0.0417,-0.0395,-0.044,-0.0406,-0.0432,-0.0432,-0.0445,-0.0445,-0.0535,-0.0446,-0.0446,-0.0446,-0.0445,0,-0.0485,-0.0511,-0.0477,-0.0494,-0.052,-0.0493,-0.052,-0.051,-0.0502,-0.0513,-0.0482,-0.0493,-0.0463,-0.0469,-0.0451,-0.047,-0.0472,-0.0463,-0.0458,-0.0466,-0.0467,-0.0469,-0.0464,-0.0448,-0.0447,-0.0447,-0.0446,0,-0.0574,-0.0553,-0.0578,-0.056,-0.0556,-0.0577,-0.0561,-0.0573,-0.0558,-0.0572,-0.0574,-0.055,-0.0556,-0.0533,-0.0535,-0.0523,-0.0551,-0.0539,-0.0553,-0.055,-0.0577,-0.0574,-0.0672,-0.0682,-0.0586,-0.0587,-0.0588,0,-0.0628,-0.0647,-0.0629,-0.0634,-0.063,-0.0639,-0.0641,-0.0613,-0.0616,-0.0607,-0.062,-0.0623,-0.0624,-0.0634,-0.0616,-0.0616,-0.0605,-0.0638,-0.0605,-0.0611,-0.0604,-0.0603,-0.0604,-0.0646,-0.0647,-0.0648,-0.0649,0,-0.0724,-0.071,-0.0716,-0.0715,-0.0719,-0.0718,-0.0714,-0.0719,-0.0688,-0.0693,-0.0698,-0.0698,-0.0698,-0.0701,-0.0696,-0.0688,-0.0663,-0.0659,-0.0665,-0.0674,-0.0681,-0.0676,-0.0572,-0.0658,-0.0657,-0.0656,-0.0656,-0.0655,-0.0796,-0.081,-0.0799,-0.0804,-0.0797,-0.0793,-0.0803,-0.0787,-0.0791,-0.0789,-0.0771,-0.0778,-0.0766,-0.0757,-0.075,-0.0754,-0.0738,-0.0747,-0.0749,-0.0752,-0.0756,-0.0679,-0.0753,-0.0753,-0.0752,-0.0752,-0.0752,0,-0.089,-0.0879,-0.0884,-0.0879,-0.0882,-0.0856,-0.0848,-0.0852,-0.086,-0.085,-0.0851,-0.0854,-0.0854,-0.0834,-0.0831,-0.0837,-0.0825,-0.0838,-0.0837,-0.0835,-0.0772,-0.0766,-0.0847,-0.0847,-0.0847,-0.0847,-0.0847,-0.0847,-0.0939,-0.096,-0.0944,-0.096,-0.0948,-0.0956,-0.0953,-0.0948,-0.094,-0.0945,-0.0945,-0.0931,-0.0916,-0.091,-0.0908,-0.0902,-0.0902,-0.0918,-0.0908,-0.0849,-0.084,-0.0831,-0.0826,-0.0918,-0.0919,-0.0971,-0.0971,-0.0972]}]]